sat.trackr.live / text

‹ back to catalog

STARLINK-31396

NORAD 59409 · 2024-064M

PAYLOAD ACTIVE UNKNOWN

§ Identity

Operator
Country
US
Launch date
2024-04-05
Launch site
AFETR
Launch vehicle
Mass (kg)
RCS (m²)

Purposes: comms

External: N2YO · Heavens-Above · Gunter

§ Orbital elements

Epoch: 2026-05-24T17:04:13.882656Z

Period
94.27 min
Inclination
43.0032°
Eccentricity
0.0000995
Mean motion
15.27569693 rev/d
Perigee alt
482.4 km
Apogee alt
483.8 km
Semi-major
6,861.2 km
B*
8.0372e-5
RAAN
336.3352°
Arg perigee
265.7729°
Mean anomaly
94.3009°
Rev number
12,091

§ Raw data

STARLINK-313961 59409U 24064M   26144.71127179  .00001950  00000+0  80372-4 0  99932 59409  43.0032 336.3352 0000995 265.7729  94.3009 15.27569693120918

JSON: /api/v1/satellites/59409 · /tle

For live sub-satellite position, see the globe view (requires WebGL).

§ Visibility from observer

Set your observer location to see the next 7 days of passes ≥ 10°. The values pass through the URL so the page stays shareable.

No JS? Fill the form by hand. The geolocation button needs JavaScript.